timestamp,surface_pressure_avg,surface_temp_avg,battery_voltage,lat,long
2020-08-23 00:09:01+00:00,286.6714,18.9,12.89,47.84626,-54.09684
2020-08-23 00:19:01+00:00,296.188,18.9,12.73,47.84626,-54.09684
2020-08-23 00:29:01+00:00,302.223,18.9,12.73,47.84626,-54.09684
2020-08-23 00:39:01+00:00,311.4997,18.9,12.73,47.84626,-54.09684
2020-08-23 00:49:01+00:00,322.6813,18.9,12.73,47.84626,-54.09684
2020-08-23 00:59:01+00:00,329.8579,18.93,12.73,47.84626,-54.09684
2020-08-23 01:09:01+00:00,336.663,19.0,12.73,47.84626,-54.09684
2020-08-23 01:19:01+00:00,346.0763,19.0,12.73,47.84626,-54.09684
2020-08-23 01:29:01+00:00,354.9495,19.07,12.73,47.84626,-54.09684
2020-08-23 01:39:01+00:00,358.9097,19.1,12.73,47.84626,-54.09684
2020-08-23 01:49:01+00:00,360.8363,19.18,12.73,47.84626,-54.09684
2020-08-23 01:59:01+00:00,366.4896,19.2,12.73,47.84626,-54.09684
2020-08-23 02:09:01+00:00,370.8047,19.18,12.73,47.84626,-54.09684
2020-08-23 02:19:01+00:00,371.0531,19.09,12.73,47.84626,-54.09684
2020-08-23 02:29:01+00:00,372.1979,19.0,12.73,47.84626,-54.09684
2020-08-23 02:39:01+00:00,374.1628,19.0,12.73,47.84626,-54.09684
2020-08-23 02:49:01+00:00,372.8529,19.09,12.73,47.84626,-54.09684
2020-08-23 02:59:01+00:00,372.1878,19.1,12.73,47.84626,-54.09684
2020-08-23 03:09:01+00:00,371.4162,19.1,12.73,47.84626,-54.09684
2020-08-23 03:19:01+00:00,368.2612,19.1,12.73,47.84626,-54.09684
2020-08-23 03:29:01+00:00,364.963,19.2,12.73,47.84626,-54.09684
2020-08-23 03:39:01+00:00,364.4613,19.1,12.73,47.84626,-54.09684
2020-08-23 03:49:01+00:00,361.1413,19.18,12.73,47.84626,-54.09684
2020-08-23 03:59:01+00:00,356.0996,19.22,12.73,47.84626,-54.09684
2020-08-23 04:09:01+00:00,353.5912,19.16,12.73,47.84626,-54.09684
2020-08-23 04:19:01+00:00,350.4896,19.09,12.73,47.84626,-54.09684
2020-08-23 04:29:01+00:00,341.6662,19.29,12.73,47.84626,-54.09684
2020-08-23 04:39:01+00:00,334.4363,19.15,12.73,47.84626,-54.09684
2020-08-23 04:49:01+00:00,328.1829,19.0,12.73,47.84626,-54.09684
2020-08-23 04:59:01+00:00,317.4963,19.27,12.73,47.84626,-54.09684
2020-08-23 05:09:01+00:00,304.2596,19.4,12.73,47.84626,-54.09684
2020-08-23 05:19:01+00:00,295.1613,19.4,12.73,47.84626,-54.09684
2020-08-23 05:29:01+00:00,286.848,19.4,12.73,47.84626,-54.09684
2020-08-23 05:39:01+00:00,273.2614,19.43,12.73,47.84626,-54.09684
2020-08-23 05:49:01+00:00,263.1031,19.4,12.73,47.84626,-54.09684
2020-08-23 05:59:01+00:00,253.538,19.4,12.73,47.84626,-54.09684
2020-08-23 06:09:01+00:00,242.0364,19.4,12.73,47.84626,-54.09684
2020-08-23 06:19:01+00:00,229.5397,19.4,12.73,47.84626,-54.09684
2020-08-23 06:29:01+00:00,219.8814,19.41,12.73,47.84626,-54.09684
2020-08-23 06:39:01+00:00,209.2681,19.47,12.73,47.84626,-54.09684
2020-08-23 06:49:01+00:00,198.9581,19.48,12.73,47.84626,-54.09684
2020-08-23 06:59:01+00:00,191.5448,19.4,12.73,47.84626,-54.09684
2020-08-23 07:09:01+00:00,187.2615,19.4,12.73,47.84626,-54.09684
2020-08-23 07:19:01+00:00,181.4231,19.4,12.65,47.84626,-54.09684
2020-08-23 07:29:01+00:00,175.8515,19.4,12.65,47.84626,-54.09684
2020-08-23 07:39:01+00:00,172.5415,19.4,12.65,47.84626,-54.09684
2020-08-23 07:49:01+00:00,168.9482,19.4,12.65,47.84626,-54.09684
2020-08-23 07:59:01+00:00,167.6382,19.4,12.65,47.84626,-54.09684
2020-08-23 08:09:01+00:00,168.3831,19.4,12.65,47.84626,-54.09684
2020-08-23 08:19:01+00:00,168.6214,19.4,12.65,47.84626,-54.09684
2020-08-23 08:29:01+00:00,170.3431,19.4,12.65,47.84626,-54.09684
2020-08-23 08:39:01+00:00,174.1848,19.4,12.65,47.84626,-54.09684
2020-08-23 08:49:01+00:00,177.0099,19.4,12.65,47.84626,-54.09684
2020-08-23 08:59:01+00:00,177.5231,19.4,12.65,47.84626,-54.09684
2020-08-23 09:09:01+00:00,180.7081,19.45,12.65,47.84626,-54.09684
2020-08-23 09:19:01+00:00,187.6014,19.49,12.73,47.84626,-54.09684
2020-08-23 09:29:01+00:00,191.4798,19.46,12.73,47.84626,-54.09684
2020-08-23 09:39:01+00:00,194.7681,19.4,12.73,47.84626,-54.09684
2020-08-23 09:49:01+00:00,199.3148,19.4,12.73,47.84626,-54.09684
2020-08-23 09:59:01+00:00,204.1447,19.39,12.73,47.84626,-54.09684
2020-08-23 10:09:01+00:00,208.2914,19.31,12.73,47.84626,-54.09684
2020-08-23 10:19:01+00:00,211.2865,19.3,13.6,47.84626,-54.09684
2020-08-23 10:29:01+00:00,214.3681,19.2,13.6,47.84626,-54.09684
2020-08-23 10:39:01+00:00,220.1781,19.1,13.6,47.84626,-54.09684
2020-08-23 10:49:01+00:00,226.1398,19.0,13.6,47.84626,-54.09684
2020-08-23 10:59:01+00:00,228.3297,19.0,13.6,47.84626,-54.09684
2020-08-23 11:09:01+00:00,231.8114,19.0,13.6,47.84626,-54.09684
2020-08-23 11:19:01+00:00,240.0964,19.0,14.32,47.84626,-54.09684
2020-08-23 11:29:01+00:00,245.6364,19.0,14.32,47.84626,-54.09684
2020-08-23 11:39:01+00:00,247.1531,19.0,14.32,47.84626,-54.09684
2020-08-23 11:49:01+00:00,251.2897,18.9,14.32,47.84626,-54.09684
2020-08-23 11:59:01+00:00,260.1131,18.7,14.32,47.84626,-54.09684
2020-08-23 12:09:01+00:00,267.3147,18.7,14.32,47.84626,-54.09684
2020-08-23 12:19:01+00:00,273.308,18.69,14.4,47.84626,-54.09684
2020-08-23 12:29:01+00:00,282.2381,18.4,14.4,47.84626,-54.09684
2020-08-23 12:39:01+00:00,292.893,18.37,14.4,47.84626,-54.09684
2020-08-23 12:49:01+00:00,299.8864,18.56,14.4,47.84626,-54.09684
2020-08-23 12:59:01+00:00,306.363,18.34,14.4,47.84626,-54.09684
2020-08-23 13:09:01+00:00,315.7447,18.0,14.4,47.84626,-54.09684
2020-08-23 13:19:01+00:00,326.3729,17.9,14.4,47.84626,-54.09684
2020-08-23 13:29:01+00:00,334.0647,17.8,14.4,47.84626,-54.09684
2020-08-23 13:39:01+00:00,339.1230000000001,17.7,14.4,47.84626,-54.09684
2020-08-23 13:49:01+00:00,344.19300000000015,17.78,14.4,47.84626,-54.09684
2020-08-23 13:59:01+00:00,351.1796,17.7,14.4,47.84626,-54.09684
2020-08-23 14:09:01+00:00,354.6995,17.68,14.4,47.84626,-54.09684
2020-08-23 14:19:01+00:00,356.5063,17.7,14.32,47.84626,-54.09684
2020-08-23 14:29:01+00:00,358.0513,17.7,14.32,47.84626,-54.09684
2020-08-23 14:39:01+00:00,360.0963,17.69,14.32,47.84626,-54.09684
2020-08-23 14:49:01+00:00,360.1663,17.78,14.32,47.84626,-54.09684
2020-08-23 14:59:01+00:00,359.5197,17.8,14.32,47.84626,-54.09684
2020-08-23 15:09:01+00:00,360.9095,17.79,14.32,47.84626,-54.09684
2020-08-23 15:19:01+00:00,359.4346,17.87,14.24,47.84626,-54.09684
2020-08-23 15:29:01+00:00,358.3297,17.9,14.24,47.84626,-54.09684
2020-08-23 15:39:01+00:00,357.9129,18.0,14.24,47.84626,-54.09684
2020-08-23 15:49:01+00:00,355.8196,18.0,14.24,47.84626,-54.09684
2020-08-23 15:59:01+00:00,354.6713,18.03,14.24,47.84626,-54.09684
2020-08-23 16:09:01+00:00,352.4213,18.1,14.24,47.84626,-54.09684
2020-08-23 16:19:01+00:00,350.1479,18.1,14.16,47.84626,-54.09684
2020-08-23 16:29:01+00:00,346.5396,18.15,14.16,47.84626,-54.09684
2020-08-23 16:39:01+00:00,343.3697,18.19,14.16,47.84626,-54.09684
2020-08-23 16:49:01+00:00,338.4113,18.2,14.16,47.84626,-54.09684
2020-08-23 16:59:01+00:00,332.3146,18.2,14.16,47.84626,-54.09684
2020-08-23 17:09:01+00:00,326.3563,18.26,14.16,47.84626,-54.09684
2020-08-23 17:19:01+00:00,318.608,18.3,14.08,47.84626,-54.09684
2020-08-23 17:29:01+00:00,308.4697,18.3,14.08,47.84626,-54.09684
2020-08-23 17:39:01+00:00,299.313,18.37,14.08,47.84626,-54.09684
2020-08-23 17:49:01+00:00,290.1197,18.4,14.08,47.84626,-54.09684
2020-08-23 17:59:01+00:00,281.3464,18.4,14.08,47.84626,-54.09684
2020-08-23 18:09:01+00:00,271.4414,18.46,14.08,47.84626,-54.09684
2020-08-23 18:19:01+00:00,260.2014,18.5,13.68,47.84626,-54.09684
2020-08-23 18:29:01+00:00,248.1731,18.5,13.68,47.84626,-54.09684
2020-08-23 18:39:01+00:00,235.5181,18.5,13.68,47.84626,-54.09684
2020-08-23 18:49:01+00:00,226.1848,18.5,13.68,47.84626,-54.09684
2020-08-23 18:59:01+00:00,219.7681,18.5,13.68,47.84626,-54.09684
2020-08-23 19:09:01+00:00,209.8065,18.5,13.68,47.84626,-54.09684
2020-08-23 19:19:01+00:00,198.4831,18.5,13.76,47.84626,-54.09684
2020-08-23 19:29:01+00:00,193.0181,18.5,13.76,47.84626,-54.09684
2020-08-23 19:39:01+00:00,189.5198,18.4,13.76,47.84626,-54.09684
2020-08-23 19:49:01+00:00,180.4814,18.2,13.76,47.84626,-54.09684
2020-08-23 19:59:01+00:00,174.7148,18.14,13.76,47.84626,-54.09684
2020-08-23 20:09:01+00:00,175.5648,18.1,13.76,47.84626,-54.09684
2020-08-23 20:19:01+00:00,173.6181,18.1,13.6,47.84626,-54.09684
2020-08-23 20:29:01+00:00,171.6298,18.16,13.6,47.84626,-54.09684
2020-08-23 20:39:01+00:00,175.6098,18.3,13.6,47.84626,-54.09684
2020-08-23 20:49:01+00:00,177.5632,18.36,13.6,47.84626,-54.09684
2020-08-23 20:59:01+00:00,177.2698,18.52,13.6,47.84626,-54.09684
2020-08-23 21:09:01+00:00,179.9031,18.63,13.6,47.84626,-54.09684
2020-08-23 21:19:01+00:00,184.6865,18.74,13.44,47.84626,-54.09684
2020-08-23 21:29:01+00:00,186.5031,18.8,13.44,47.84626,-54.09684
2020-08-23 21:39:01+00:00,187.1281,18.9,13.44,47.84626,-54.09684
2020-08-23 21:49:01+00:00,189.0465,18.9,13.44,47.84626,-54.09684
2020-08-23 21:59:01+00:00,194.3048,18.96,13.44,47.84626,-54.09684
2020-08-23 22:09:01+00:00,201.0131,18.99,13.44,47.84626,-54.09684
2020-08-23 22:19:01+00:00,205.1414,19.0,13.21,47.84626,-54.09684
2020-08-23 22:29:01+00:00,207.7682,19.0,13.21,47.84626,-54.09684
2020-08-23 22:39:01+00:00,211.5114,19.08,13.21,47.84626,-54.09684
2020-08-23 22:49:01+00:00,214.8514,19.1,13.21,47.84626,-54.09684
2020-08-23 22:59:01+00:00,217.2798,19.1,13.21,47.84626,-54.09684
2020-08-23 23:09:01+00:00,220.0497,19.1,13.21,47.84626,-54.09684
2020-08-23 23:19:01+00:00,222.5514,19.16,12.81,47.84626,-54.09684
2020-08-23 23:29:01+00:00,225.1681,19.19,12.81,47.84626,-54.09684
2020-08-23 23:39:01+00:00,228.0798,19.2,12.81,47.84626,-54.09684
2020-08-23 23:49:01+00:00,235.0547,19.2,12.81,47.84626,-54.09684
2020-08-23 23:59:01+00:00,242.6581,19.2,12.81,47.84626,-54.09684
